Probability
0 0 0 0 0 0 0 0 0 0 0 0 0 13 19 35 52 61 77 90 87 94 94 90 87 84 81 84 81 81 84 84 81 77 71 65 61 61 68 71 71 81 84 87
0 0 0 0 0 0 0 0 0 3 3 0 3 10 23 39 45 55 65 81 90 90 90 90 87 81 81 84 84 84 87 87 84 81 71 74 65 58 65 61 74 68 68 90
0 0 0 0 0 0 0 0 0 0 3 3 3 3 23 32 39 52 58 65 77 84 87 90 94 87 84 81 81 81 87 84 87 87 81 61 74 61 58 68 71 65 68 77
0 0 0 0 0 0 0 0 0 0 0 0 0 0 13 23 32 48 55 65 77 90 87 94 94 87 77 77 77 81 84 84 90 87 71 68 58 52 52 65 74 68 65 74
0 0 0 0 0 0 0 0 0 0 0 0 0 0 0 19 19 35 61 71 74 77 94 90 90 90 74 71 74 77 87 87 81 84 81 77 68 65 61 65 71 68 65 68
0 0 0 0 0 0 0 0 0 0 0 0 0 0 0 0 3 23 55 74 74 84 87 81 84 81 71 74 74 74 90 90 77 81 74 77 68 65 65 71 65 65 61 58
0 0 0 0 0 0 0 0 0 0 0 0 0 0 0 3 6 23 58 77 81 87 90 77 77 77 74 71 71 71 84 84 81 74 71 68 74 74 68 68 71 71 61 65
0 0 0 0 0 0 0 0 0 0 0 0 0 0 0 13 16 42 68 77 81 87 77 84 81 81 77 77 77 74 77 81 81 65 65 65 68 58 68 74 74 68 65 65
0 0 0 0 0 0 0 0 0 0 0 0 0 0 0 13 23 39 65 77 77 90 84 81 77 77 81 77 81 77 74 77 71 65 61 61 61 61 61 68 68 61 71 52
0 0 0 0 0 0 0 0 0 0 0 0 0 0 0 6 29 39 71 81 84 90 87 87 84 81 81 77 81 81 81 81 71 68 58 55 61 58 61 61 61 61 55 55
0 0 0 0 0 0 0 0 0 0 0 0 0 0 0 3 19 42 68 74 90 77 87 81 84 84 77 77 77 77 71 74 74 61 48 48 55 55 55 52 42 48 48 48
0 0 0 0 0 0 0 0 0 0 0 0 0 0 6 10 16 35 48 77 90 94 90 84 81 77 74 74 68 68 68 61 55 52 48 52 42 45 42 45 45 52 48 39
0 0 0 0 0 0 0 0 0 0 0 0 0 0 6 10 23 39 58 87 90 94 97 87 77 81 84 74 65 65 58 55 52 52 45 45 32 39 42 42 39 39 42 39
0 0 0 0 0 0 0 0 0 0 0 0 0 0 6 16 19 39 68 94 94 94 97 87 84 87 81 81 71 68 55 55 45 45 39 35 39 42 39 32 32 32 35 32
0 0 0 0 0 0 0 0 0 0 0 0 0 0 0 13 26 39 58 87 94 97 94 90 94 87 81 74 68 68 55 52 45 42 32 35 39 32 29 32 35 35 35 29
0 0 0 0 0 0 0 0 0 0 0 0 0 0 3 19 29 35 68 84 87 90 90 90 87 87 84 74 68 68 65 61 45 42 39 39 29 35 32 32 32 32 32 29
0 0 0 0 0 0 0 0 0 0 0 0 0 0 19 23 35 52 68 77 81 94 87 90 90 84 84 77 74 71 65 55 48 45 35 29 32 32 29 29 29 29 26 26
0 0 0 0 0 0 0 0 0 0 0 0 0 16 23 26 58 68 71 74 81 87 90 90 90 87 81 81 74 68 58 45 45 42 29 29 29 29 32 32 32 29 26 23
0 0 0 0 0 0 0 0 0 0 0 3 3 13 19 45 61 55 68 65 77 87 90 90 87 87 81 81 74 55 52 48 45 39 39 29 26 32 29 26 29 29 29 26
0 3 0 0 0 0 0 0 3 0 0 10 13 29 32 52 29 52 77 77 81 84 84 84 81 74 74 74 65 55 52 45 42 39 32 29 26 26 26 29 26 26 23 19
0 0 0 0 0 0 0 6 3 0 6 35 42 45 58 65 65 90 81 74 77 81 81 71 74 68 65 58 58 55 52 42 39 35 35 19 19 19 19 26 19 19 16 19
0 0 0 0 0 0 3 6 13 35 65 65 52 58 65 81 81 77 68 71 68 74 74 71 68 55 58 55 52 42 39 35 32 29 29 23 19 13 10 16 13 13 13 10
0 0 0 0 0 16 13 32 52 55 68 65 58 61 68 68 74 74 71 68 65 58 58 48 48 42 42 39 35 32 29 29 26 23 26 23 19 13 10 13 13 10 6 3
0 3 3 3 10 19 26 32 52 55 55 61 61 65 71 65 61 65 65 52 48 45 39 39 32 29 26 23 23 23 16 23 23 19 19 19 19 16 16 16 6 6 3 3
6 6 6 10 13 26 39 39 42 58 55 61 65 65 68 65 52 45 42 42 42 32 39 35 32 29 19 16 16 19 16 19 16 16 10 10 10 6 10 6 6 3 3 3
0 6 6 10 16 23 35 35 35 52 52 52 55 48 52 48 48 39 35 42 32 32 29 26 19 16 16 13 16 16 13 13 16 10 6 6 6 6 3 0 0 0 0 0
Height
5922 5924 5926 5927 5928 5929 5930 5930 5931 5930 5930 5930 5930 5929 5928 5927 5926 5924 5922 5920 5918 5915 5912 5910 5907 5904 5902 5900 5898 5897 5896 5894 5894 5893 5893 5893 5893 5893 5894 5895 5896 5897 5898 5899
5920 5921 5923 5924 5926 5927 5928 5928 5929 5929 5929 5929 5928 5928 5927 5925 5924 5923 5921 5919 5917 5914 5912 5909 5906 5904 5902 5900 5898 5896 5895 5894 5894 5893 5892 5892 5892 5892 5893 5893 5894 5895 5896 5897
5916 5919 5920 5922 5923 5924 5925 5926 5927 5927 5927 5927 5927 5927 5925 5924 5922 5921 5920 5918 5916 5913 5911 5908 5905 5903 5900 5898 5897 5896 5894 5893 5893 5892 5891 5891 5891 5891 5891 5892 5892 5893 5894 5895
5912 5915 5917 5919 5920 5922 5922 5923 5924 5925 5925 5926 5926 5928 5924 5922 5920 5919 5918 5916 5914 5912 5910 5907 5904 5901 5899 5897 5896 5895 5893 5892 5892 5891 5891 5890 5890 5890 5890 5890 5890 5891 5892 5892
5909 5911 5913 5915 5917 5918 5919 5921 5922 5922 5923 5924 5923 5924 5925 5920 5919 5917 5915 5914 5912 5910 5908 5906 5903 5900 5898 5896 5894 5893 5893 5892 5891 5890 5890 5889 5889 5888 5889 5889 5889 5889 5890 5890
5904 5907 5909 5912 5913 5915 5916 5918 5919 5920 5921 5922 5921 5921 5921 5919 5916 5914 5913 5912 5910 5908 5906 5904 5902 5899 5897 5895 5893 5892 5891 5890 5890 5889 5889 5888 5887 5887 5887 5887 5887 5887 5887 5888
5900 5903 5905 5907 5910 5912 5914 5916 5918 5919 5920 5920 5918 5917 5918 5915 5913 5912 5911 5909 5908 5906 5904 5902 5900 5897 5895 5893 5892 5891 5890 5889 5888 5888 5887 5886 5886 5885 5885 5885 5885 5885 5885 5886
5895 5898 5900 5903 5906 5907 5910 5913 5916 5918 5919 5918 5914 5914 5915 5912 5911 5909 5908 5907 5905 5904 5902 5900 5898 5895 5893 5892 5890 5889 5888 5887 5887 5886 5885 5884 5884 5884 5883 5883 5883 5883 5883 5883
5890 5893 5895 5898 5900 5903 5905 5908 5911 5913 5913 5914 5913 5912 5911 5909 5908 5907 5906 5904 5903 5901 5900 5898 5896 5893 5891 5889 5888 5887 5886 5886 5885 5884 5883 5882 5881 5881 5881 5881 5881 5881 5881 5880
5884 5887 5890 5892 5895 5898 5901 5903 5906 5908 5909 5911 5911 5909 5909 5907 5906 5905 5903 5902 5901 5899 5898 5896 5894 5892 5889 5888 5886 5885 5885 5884 5883 5882 5881 5879 5879 5879 5879 5879 5878 5878 5878 5877
5878 5882 5885 5888 5890 5893 5896 5899 5901 5903 5905 5907 5909 5910 5905 5904 5903 5902 5901 5900 5899 5897 5896 5894 5892 5890 5888 5886 5885 5884 5883 5882 5881 5879 5878 5878 5877 5876 5876 5876 5876 5875 5874 5874
5872 5876 5879 5882 5885 5887 5891 5893 5896 5899 5900 5902 5904 5908 5901 5901 5900 5899 5898 5897 5896 5895 5894 5893 5891 5889 5887 5885 5884 5883 5882 5880 5879 5878 5877 5876 5875 5874 5874 5873 5873 5872 5871 5871
5865 5870 5874 5877 5880 5883 5885 5888 5891 5894 5895 5897 5900 5903 5898 5898 5897 5896 5896 5895 5894 5893 5892 5891 5889 5887 5886 5884 5883 5881 5880 5878 5877 5876 5875 5874 5873 5872 5871 5871 5870 5869 5868 5867
5858 5863 5869 5874 5875 5877 5880 5883 5885 5888 5890 5892 5894 5896 5895 5894 5893 5893 5892 5892 5891 5891 5890 5889 5887 5886 5884 5882 5881 5879 5878 5876 5875 5874 5872 5871 5870 5870 5869 5868 5867 5866 5865 5864
5851 5856 5861 5865 5868 5870 5874 5876 5879 5881 5885 5888 5890 5890 5891 5890 5890 5890 5889 5889 5889 5888 5887 5886 5885 5883 5882 5880 5879 5877 5876 5874 5873 5872 5871 5869 5868 5867 5866 5865 5864 5863 5862 5861
5843 5849 5854 5858 5861 5864 5867 5870 5873 5876 5878 5881 5883 5885 5886 5885 5886 5886 5886 5886 5885 5885 5884 5883 5882 5881 5879 5878 5876 5875 5873 5872 5871 5869 5868 5867 5865 5864 5863 5862 5861 5859 5858 5857
5836 5841 5847 5851 5854 5857 5860 5864 5867 5870 5873 5875 5878 5880 5880 5881 5881 5882 5882 5882 5881 5881 5881 5880 5879 5878 5876 5875 5873 5872 5870 5869 5868 5867 5865 5864 5862 5861 5860 5858 5857 5856 5854 5853
5828 5833 5838 5844 5847 5850 5857 5858 5861 5864 5866 5869 5871 5873 5875 5876 5876 5877 5877 5877 5877 5877 5877 5876 5875 5874 5873 5872 5870 5869 5867 5866 5865 5864 5862 5861 5859 5858 5856 5855 5854 5852 5850 5849
5819 5824 5830 5835 5839 5843 5848 5851 5855 5857 5860 5863 5865 5867 5868 5870 5871 5872 5872 5872 5872 5872 5872 5872 5871 5870 5869 5868 5867 5865 5864 5863 5861 5860 5858 5857 5855 5854 5852 5851 5850 5848 5846 5845
5810 5816 5822 5826 5832 5837 5842 5843 5848 5852 5853 5856 5858 5860 5862 5864 5866 5866 5866 5867 5867 5867 5867 5867 5866 5866 5865 5864 5863 5862 5860 5859 5857 5856 5854 5853 5851 5850 5848 5847 5845 5843 5842 5841
5801 5806 5811 5817 5822 5829 5832 5835 5841 5845 5847 5849 5851 5853 5855 5857 5859 5860 5860 5861 5861 5861 5862 5862 5861 5861 5860 5859 5858 5857 5856 5854 5853 5852 5850 5848 5847 5845 5844 5842 5841 5839 5837 5836
5793 5798 5802 5808 5813 5821 5822 5827 5832 5836 5838 5841 5843 5846 5848 5850 5851 5852 5853 5854 5855 5855 5855 5856 5855 5855 5855 5854 5853 5852 5851 5849 5847 5846 5844 5843 5842 5840 5838 5837 5835 5834 5832 5831
5782 5788 5793 5799 5805 5809 5813 5818 5822 5826 5829 5832 5835 5838 5840 5842 5844 5845 5846 5847 5848 5848 5849 5849 5849 5849 5848 5848 5847 5846 5845 5843 5842 5841 5839 5837 5836 5834 5832 5831 5829 5828 5827 5825
5771 5777 5783 5788 5793 5799 5803 5808 5813 5817 5820 5823 5826 5829 5832 5834 5836 5837 5838 5839 5840 5841 5841 5842 5842 5842 5842 5841 5840 5840 5838 5837 5836 5834 5833 5831 5830 5828 5826 5825 5823 5822 5820 5819
5761 5767 5772 5778 5783 5788 5793 5798 5802 5807 5810 5814 5817 5820 5822 5825 5827 5829 5830 5831 5832 5833 5834 5834 5834 5834 5834 5834 5833 5833 5832 5830 5829 5828 5826 5825 5824 5822 5820 5818 5816 5815 5813 5812
5752 5757 5762 5767 5772 5778 5782 5787 5792 5796 5800 5804 5807 5810 5813 5815 5818 5819 5821 5822 5823 5824 5825 5826 5826 5826 5826 5825 5825 5825 5824 5823 5822 5820 5819 5818 5816 5815 5813 5811 5809 5807 5806 5804
Wind_Speed
11 10 9 9 7 6 6 6 7 7 6 6 7 7 8 8 8 9 10 11 12 12 13 13 14 13 12 11 10 10 8 8 6 4 4 5 6 6 7 9 9 10 10 10
14 13 12 11 9 8 7 7 8 8 8 8 8 9 9 9 9 9 10 11 12 13 13 13 13 13 12 11 10 10 9 8 7 5 4 4 5 5 7 8 9 10 11 11
17 16 14 12 11 10 10 9 10 9 9 9 9 10 11 10 10 9 10 11 12 13 13 14 14 14 13 12 10 9 8 7 6 6 5 4 5 5 5 7 9 10 11 12
19 17 15 14 13 12 12 11 10 10 9 10 10 8 12 11 11 10 10 11 12 12 13 14 14 14 13 12 10 9 7 6 6 6 5 5 5 6 6 7 7 10 11 12
21 19 17 16 15 14 14 13 12 11 11 11 12 10 11 12 11 12 11 11 11 12 12 13 14 13 11 11 10 8 7 7 7 6 6 7 7 6 7 8 8 8 11 12
24 21 19 18 17 16 15 14 13 12 11 12 12 11 9 11 11 12 11 11 11 11 12 13 13 12 11 11 10 8 7 7 8 8 8 8 8 7 8 8 9 9 10 12
24 23 21 20 19 17 16 14 13 12 12 12 13 12 11 12 11 10 11 11 11 11 11 12 13 12 12 12 11 9 8 8 9 9 9 8 8 8 8 8 9 10 10 11
25 24 23 21 20 19 17 16 14 12 11 13 15 12 12 11 11 10 10 11 11 10 11 12 13 13 12 11 10 8 7 7 8 9 9 9 10 9 9 10 10 11 11 12
27 27 25 24 22 22 20 18 17 16 15 13 14 13 11 11 10 10 10 10 10 9 10 12 12 13 12 11 9 8 8 8 8 9 9 10 9 9 10 10 11 11 12 12
30 29 27 26 25 24 22 21 20 17 15 14 14 13 10 10 10 10 10 10 9 9 10 11 11 12 10 9 9 8 7 8 9 9 9 9 10 10 10 10 11 12 12 12
31 29 29 27 27 25 24 23 21 19 17 14 12 12 13 11 10 10 10 9 9 10 10 10 11 10 10 8 8 8 7 8 9 9 9 9 9 10 10 11 12 12 13 13
31 29 29 28 28 27 25 24 22 20 19 16 14 13 14 12 11 11 11 10 9 9 10 11 11 10 9 8 8 8 8 9 9 9 9 9 9 10 11 12 13 13 14 14
32 31 29 29 29 27 26 24 23 21 21 19 15 14 16 13 12 12 11 10 10 10 10 11 12 10 10 9 9 9 9 9 10 10 10 10 10 10 11 12 13 14 14 15
33 32 30 26 24 26 25 25 24 23 22 20 18 16 16 13 13 12 11 11 10 10 11 11 11 11 11 10 10 10 10 10 10 10 10 10 10 10 11 12 13 14 15 15
34 33 31 29 28 27 26 26 25 24 22 20 19 17 15 14 13 12 11 11 10 10 10 11 12 12 12 11 11 11 10 10 10 10 10 11 11 12 12 13 13 14 15 16
36 34 33 31 30 29 28 28 27 25 23 21 20 18 16 15 14 13 12 11 12 11 11 12 12 12 13 12 12 11 11 11 11 11 11 12 12 13 13 13 14 15 15 16
38 36 34 32 31 31 31 29 28 26 24 22 21 19 18 17 15 14 13 13 13 14 14 14 13 14 14 14 13 13 12 12 13 13 13 13 13 14 14 14 14 15 15 15
40 38 36 33 34 34 30 29 28 27 26 24 23 21 20 19 17 16 15 15 15 15 16 16 15 15 15 15 14 14 13 14 14 14 15 14 14 15 15 15 16 16 16 16
41 40 38 37 34 33 32 31 28 27 26 25 23 22 22 21 19 19 18 17 17 17 17 18 17 16 16 16 16 15 15 15 16 16 16 16 16 16 16 16 17 17 17 17
43 42 41 40 36 31 30 32 29 29 29 27 25 24 23 22 21 21 20 19 18 18 19 19 19 18 17 17 17 17 17 17 17 18 18 18 18 18 18 18 18 18 18 18
44 44 43 41 39 34 34 34 31 30 29 28 26 26 25 24 23 22 22 21 21 20 20 20 20 20 20 20 20 20 19 19 20 20 21 21 20 20 20 20 20 20 19 20
45 45 44 43 41 37 38 35 34 32 31 30 28 27 27 26 24 23 23 23 23 23 23 23 23 22 22 22 22 22 22 22 22 22 23 22 22 22 22 22 22 21 22 22
45 46 46 45 44 42 40 37 35 34 33 32 31 30 29 28 27 26 25 25 24 25 25 25 25 24 24 24 24 24 24 24 24 24 24 24 24 24 23 23 23 23 23 24
45 46 46 46 45 44 42 39 37 36 35 34 33 32 31 30 29 28 28 27 27 26 27 27 27 27 26 26 26 26 26 26 26 26 25 25 25 25 24 24 24 25 25 25
43 44 45 45 45 44 43 42 40 39 38 37 36 35 34 33 31 30 30 29 29 29 29 29 30 29 29 29 28 28 28 28 28 27 27 27 27 27 26 26 26 26 27 27
41 42 43 43 44 44 43 43 42 41 40 39 38 38 37 35 34 34 33 32 31 31 31 31 31 31 31 31 30 31 31 31 29 28 28 28 28 28 28 28 28 28 28 28
Wind_Direction
233 233 234 239 247 255 266 281 292 306 316 320 322 323 324 327 324 327 331 333 336 340 340 340 342 343 339 337 337 336 332 325 322 312 285 258 249 238 234 228 228 223 221 223
234 234 236 242 249 257 265 276 288 301 309 310 314 320 321 319 320 319 319 322 327 331 336 337 337 337 335 331 329 331 327 324 319 309 300 277 250 241 241 233 229 228 226 226
234 235 238 244 248 253 261 267 278 293 306 307 314 319 319 319 315 313 311 312 316 322 328 332 331 329 329 323 321 322 320 320 317 312 308 290 262 257 243 240 232 230 229 228
235 237 239 244 247 250 256 264 275 287 295 294 307 300 307 315 314 311 309 308 310 314 320 327 328 324 322 320 317 321 319 315 311 310 307 299 280 268 259 255 243 236 231 230
236 237 240 243 246 247 253 264 271 281 289 294 303 303 298 310 311 309 307 307 307 308 313 320 322 323 322 318 314 314 315 309 303 304 305 297 279 265 260 256 253 251 241 236
236 237 240 243 246 249 255 261 269 279 285 288 294 301 299 301 306 306 305 306 307 305 309 316 319 320 318 314 306 307 307 305 301 295 297 300 284 274 264 256 257 258 251 244
238 239 241 243 246 248 250 253 262 273 280 282 291 298 296 300 304 306 307 306 306 304 305 311 314 316 315 310 301 300 302 305 304 297 295 296 288 280 271 267 264 263 259 254
236 239 239 241 243 245 244 245 248 254 266 278 291 295 299 302 302 303 304 305 303 300 304 309 312 312 313 311 304 299 301 304 305 299 294 289 283 279 275 274 271 269 268 262
235 238 239 240 240 242 243 244 247 255 263 269 281 293 296 297 300 302 301 304 302 299 308 310 312 316 314 310 305 301 298 298 304 301 294 290 277 274 273 275 276 274 272 268
234 237 239 239 241 241 243 245 249 253 261 268 279 288 286 290 294 297 299 299 296 296 306 312 315 320 317 311 306 301 296 296 300 299 296 291 279 270 271 273 276 274 272 270
234 236 239 239 240 243 243 245 248 251 255 260 269 278 281 284 288 291 293 294 293 293 299 308 318 322 322 316 310 307 303 299 301 301 298 290 284 278 277 278 280 280 278 274
232 234 238 240 241 242 244 246 249 251 257 260 258 268 278 282 285 286 284 281 286 293 298 302 310 316 322 320 313 310 307 306 303 298 294 289 287 283 281 279 282 283 281 276
231 232 235 239 242 243 245 247 249 250 254 257 258 265 275 279 282 281 277 276 278 288 295 298 301 306 313 315 311 309 306 305 301 295 292 289 287 287 286 284 285 285 283 278
230 232 232 235 244 245 244 245 246 248 251 256 256 254 268 275 279 278 273 273 277 283 290 295 298 299 304 309 308 309 309 307 305 299 295 292 291 291 290 289 288 287 286 283
231 232 232 231 235 241 243 243 243 245 247 249 255 259 261 267 272 272 268 270 276 282 287 293 297 299 298 303 306 304 302 302 303 304 303 298 295 293 293 293 291 287 284 283
231 232 233 234 236 239 241 241 243 246 248 249 252 256 259 265 269 267 266 268 272 279 286 292 296 297 297 300 303 302 298 297 300 302 300 297 294 294 294 294 291 291 289 285
230 232 232 234 235 236 238 239 243 246 248 251 253 255 256 261 264 264 263 265 271 277 284 289 293 295 295 298 301 301 297 294 294 296 298 298 296 295 293 293 292 292 291 287
230 231 232 231 234 235 238 238 240 243 245 248 250 252 254 256 260 262 263 265 269 274 280 284 289 291 292 295 298 298 298 297 294 295 297 297 295 294 293 292 292 292 290 288
229 231 232 232 235 238 237 236 235 239 243 246 248 250 251 253 257 260 262 265 267 271 275 280 284 288 292 294 295 295 295 297 296 296 296 295 294 294 293 293 292 293 292 290
229 231 232 233 232 233 239 236 233 236 241 242 244 246 249 251 254 257 260 262 265 268 271 275 280 283 287 290 293 294 296 296 295 296 295 294 292 292 291 291 292 291 292 292
229 231 232 234 235 234 236 237 233 236 240 241 242 245 247 249 253 257 259 261 263 266 268 271 275 279 282 287 291 293 293 294 293 296 295 293 292 291 290 289 289 289 289 290
229 231 233 234 235 236 238 238 236 237 240 242 242 244 246 248 252 256 259 261 262 264 266 269 272 275 279 283 287 290 291 292 292 293 294 290 289 289 289 288 286 286 286 288
229 230 232 234 235 236 238 239 239 240 242 244 244 245 247 250 253 256 259 260 262 263 265 267 270 272 276 280 282 286 287 288 290 292 293 290 287 288 288 287 285 284 285 286
230 231 233 236 237 239 240 240 241 242 243 244 245 247 248 250 252 255 258 259 261 263 264 266 269 271 275 279 281 283 286 286 286 288 290 290 288 287 286 286 286 286 286 285
231 232 233 235 237 239 239 240 241 242 244 246 247 249 250 252 253 255 257 258 260 262 263 265 267 270 273 276 278 280 283 285 285 284 285 287 288 286 285 286 285 286 286 286
232 232 233 234 235 237 239 240 241 242 244 246 248 249 251 253 255 256 257 259 259 260 261 264 266 267 270 272 275 278 281 281 281 281 283 285 286 286 285 285 285 284 285 285